This is the latest recevied weather packets stored in our database for station/object SP8EBC-11. If no packets are shown the sender has not sent any weather packets the latest 1 day(s).
| Time | Temp. | Humidity | Pressure | Rain* | Wind** | Luminosity | Snow |
|---|---|---|---|---|---|---|---|
| 1778014226 | 12.78° C | 70% | 991.8 hPa | - | 4.92 m/s, 27° | - | - |
| 1778014106 | 12.78° C | 70% | 991.7 hPa | - | 4.47 m/s, 27° | - | - |
| 1778013985 | 12.78° C | 71% | 991.7 hPa | - | 4.92 m/s, 33° | - | - |
| 1778013866 | 12.78° C | 71% | 991.8 hPa | - | 4.92 m/s, 28° | - | - |
| 1778013746 | 12.78° C | 71% | 991.8 hPa | - | 4.47 m/s, 31° | - | - |
| 1778013626 | 13.33° C | 71% | 991.8 hPa | - | 4.47 m/s, 30° | - | - |
| 1778013506 | 13.33° C | 71% | 991.8 hPa | - | 4.92 m/s, 28° | - | - |
| 1778013385 | 13.33° C | 71% | 991.8 hPa | - | 4.92 m/s, 28° | - | - |
| 1778013266 | 13.33° C | 71% | 991.7 hPa | - | 4.47 m/s, 27° | - | - |
| 1778013145 | 13.33° C | 71% | 991.7 hPa | - | 4.02 m/s, 29° | - | - |
| 1778013026 | 13.33° C | 70% | 991.7 hPa | - | 4.02 m/s, 34° | - | - |
| 1778012905 | 13.33° C | 70% | 991.7 hPa | - | 4.47 m/s, 32° | - | - |
| 1778012785 | 13.89° C | 70% | 991.7 hPa | - | 4.92 m/s, 30° | - | - |
| 1778012667 | 13.89° C | 70% | 991.7 hPa | - | 4.92 m/s, 25° | - | - |
| 1778012545 | 13.89° C | 70% | 991.7 hPa | - | 4.47 m/s, 26° | - | - |
| 1778012425 | 13.89° C | 70% | 991.6 hPa | - | 4.47 m/s, 23° | - | - |
| 1778012305 | 13.89° C | 70% | 991.6 hPa | - | 4.02 m/s, 26° | - | - |
| 1778012184 | 13.89° C | 70% | 991.6 hPa | - | 3.58 m/s, 32° | - | - |
| 1778012065 | 13.89° C | 70% | 991.6 hPa | - | 3.58 m/s, 34° | - | - |
| 1778011945 | 14.44° C | 70% | 991.6 hPa | - | 3.58 m/s, 33° | - | - |
| 1778011825 | 14.44° C | 70% | 991.6 hPa | - | 3.58 m/s, 34° | - | - |
| 1778011705 | 14.44° C | 70% | 991.5 hPa | - | 4.02 m/s, 32° | - | - |
| 1778011584 | 14.44° C | 70% | 991.5 hPa | - | 4.47 m/s, 26° | - | - |
| 1778011465 | 14.44° C | 70% | 991.5 hPa | - | 4.47 m/s, 30° | - | - |
| 1778011344 | 14.44° C | 70% | 991.5 hPa | - | 3.58 m/s, 24° | - | - |
* Rain since midnight (hover to see other rain measurements)
** Current wind speed in m/s (hover to see current wind gust speed)